Regional Weather Roundup
Issued by NWS

Home | Current Version | Previous Version | Graphics & Text | Print | Product List | Glossary On
Versions: 1 2 3 4 5 6 7 8 9 10 11 12 13 14 15 16 17 18 19 20 21 22 23 24 25 26 27 28 29 30 31 32 33 34 35 36 37 38 39 40 41 42 43 44 45 46 47 48 49 50
000
ASUS43 KLMK 300502
RWRKY
KENTUCKY REGIONAL WEATHER ROUNDUP
NATIONAL WEATHER SERVICE LOUISVILLE KY
100 AM EDT FRI SEP 30 2016

NOTE "FAIR" INDICATES FEW OR NO CLOUDS BELOW 12,000 FEET
WITH NO SIGNIFICANT WEATHER AND/OR OBSTRUCTIONS TO VISIBILITY.

KYZ001>023-026-027-061>063-070>075-300600-
WESTERN AND SOUTH CENTRAL KENTUCKY

CITY           SKY/WX    TMP DP  RH WIND       PRES   REMARKS
PADUCAH        PTCLDY    55  53  93 W3        30.10F FOG
HENDERSON      PTCLDY    55  52  88 NW6       30.07F
OWENSBORO      NOT AVBL
HOPKINSVILLE   PTCLDY    54  54  98 W3        30.08F
BOWLING GREEN  PTCLDY    53  51  93 CALM      30.09S
GLASGOW        NOT AVBL
$$

KYZ024-025-028>034-038-045-046-053-300600-
NORTH CENTRAL KENTUCKY

CITY           SKY/WX    TMP DP  RH WIND       PRES   REMARKS
LOUISVILLE/SDF CLOUDY    58  55  90 NW5       30.07F
LOUISVILLE/LOU LGT RAIN  58  55  90 NW5       30.07F FOG
FORT KNOX      FOG       50  49  99 CALM      30.06F VSB 3/4
$$

KYZ035>037-039>044-047>052-055>060-089>105-300600-
NORTHEAST KENTUCKY

CITY           SKY/WX    TMP DP  RH WIND       PRES   REMARKS
LEXINGTON      CLOUDY    54  52  93 W6        30.07F
COVINGTON      LGT RAIN  58  57  97 NE9       30.03F
FRANKFORT      LGT RAIN  56  53  90 SW3       30.06F FOG
$$

KYZ054-064>069-076>088-106>120-300600-
SOUTHEAST KENTUCKY

CITY           SKY/WX    TMP DP  RH WIND       PRES   REMARKS
JACKSON        FOG       53  52  96 CALM      30.06F VSB 1/2
LONDON         CLEAR     50  48  93 CALM      30.07F
SOMERSET       MOCLDY    50  50 100 E3        30.08F
MIDDLESBORO    CLOUDY    53  52  97 CALM      30.08F
MONTICELLO     FOG       47  47 100 VRB7      30.09F VSB 1/2
$$





USA.gov is the U.S. government's official web portal to all federal, state and local government web resources and services.